Find Starlink 1454

NORAD ID: 45671 Int'l Des: 2020-035 Owner: SPXS Country: US Constellation: starlink operational
LEOCIRCULAR

Live Position

Loading 3D Globe...

About Starlink 1454

Description loading...

Upcoming Passes

Passes for default location (London). Set your location on the main map for personalized predictions.

Altitude History

Loading altitude history...

Two-Line Element Set

1 45671U 20035Q 26139.18361940 .00099386 00000-0 10091-2 0 9994
2 45671 53.0442 70.4711 0003106 33.2451 326.8758 15.64433642329901
Epoch: May 19, 2026 • Age: 8 hours

Current Status

Altitude 379.6 km
Velocity 7.69 km/s
Sub-Earth Point 48.37°N, 126.1°E
Launch Date Jun 4, 2020
Age 5.9 years
Type internet

Technical Details

Classification Payload
Mass 260.00 kg
Dry Mass 248.00 kg
Total Mass 260.00 kg
Length 0.20 m
Diameter 2.80 m
Span 9.00 m
Shape Box + pan
Manufacturer SPXS
Bus Type Starlink
Phase Status In Orbit
Owner/State SPXS/US

Most Searched